Temp
11 10 9 8 8 7 8 8 8 8 9 9 9 8 9 10 10 10 11 11 11 11 10 11 10 10 10 11 10 10 10 9
12 10 10 9 9 9 8 9 8 9 8 8 8 9 9 9 10 11 11 11 11 11 11 11 11 11 11 10 10 10 9 9
13 12 12 10 10 9 9 9 9 9 10 9 9 9 10 10 11 11 11 11 11 11 12 12 11 10 10 10 10 10 10 9
12 12 13 11 11 11 10 10 10 10 10 10 10 10 10 10 11 11 11 11 11 11 12 11 11 10 10 11 11 10 10 9
13 12 12 13 12 11 11 11 11 11 11 10 10 10 10 11 11 12 12 11 12 11 11 11 11 11 11 11 10 10 9 9
14 13 13 13 13 12 12 11 11 11 11 11 11 11 12 12 12 12 12 11 11 11 11 11 11 11 10 10 9 10 9 8
15 15 14 13 13 13 12 12 12 12 12 11 11 12 12 12 12 12 12 12 12 12 12 11 11 11 10 10 9 9 9 8
15 14 14 13 13 12 12 12 12 12 12 12 12 12 13 13 13 13 13 12 12 12 12 12 11 10 10 9 9 9 8 8
16 15 15 15 14 13 12 12 13 12 12 13 13 13 13 13 13 13 13 13 13 12 12 12 10 10 10 10 9 8 8 7
17 16 16 16 15 14 14 13 13 12 12 12 13 13 13 14 13 13 13 12 12 12 12 10 9 9 9 9 8 8 7 7
18 17 17 17 17 17 16 15 15 14 13 13 13 13 14 14 14 12 13 11 11 12 12 11 9 9 9 8 8 7 7 6
20 18 19 19 18 17 17 16 16 15 14 14 14 14 14 14 14 11 12 12 12 13 11 10 9 8 9 8 7 6 6 6
21 20 19 17 18 17 17 17 17 15 15 14 14 14 13 13 11 10 13 11 11 10 9 9 8 9 9 8 6 6 6 4
21 21 20 19 18 17 16 15 14 14 13 14 14 14 12 13 13 10 10 9 10 9 9 8 9 8 7 7 5 5 4 3
21 20 19 19 18 18 17 16 14 13 11 16 15 14 14 12 11 10 10 9 8 8 8 8 8 7 6 5 4 3 3 2
20 20 19 18 18 17 17 16 15 13 16 16 14 13 11 11 10 9 9 9 8 8 8 7 6 5 4 4 3 2 2 1
20 19 18 18 18 16 15 15 15 15 15 14 13 11 10 10 9 9 8 8 7 7 6 5 5 4 4 3 2 1 1 0
20 19 18 18 18 17 15 14 12 12 12 11 10 10 10 9 9 8 7 6 6 5 5 4 3 3 1 1 1 0 -0 -0
20 18 17 17 17 16 15 13 11 10 9 9 9 9 8 7 6 5 5 5 5 4 3 1 1 0 0 0 -0 -0 -0 -1
Height
1493 1493 1493 1494 1497 1500 1503 1506 1509 1513 1517 1521 1526 1531 1537 1542 1544 1549 1553 1557 1559 1563 1566 1568 1569 1572 1573 1574 1574 1575 1577 1578
1492 1492 1493 1493 1495 1498 1501 1502 1506 1511 1516 1521 1526 1530 1536 1540 1544 1548 1550 1553 1556 1559 1562 1564 1566 1567 1569 1570 1571 1572 1574 1575
1488 1489 1491 1493 1493 1496 1499 1502 1505 1510 1516 1522 1526 1531 1535 1539 1543 1545 1548 1550 1553 1555 1557 1558 1560 1562 1563 1564 1565 1567 1569 1572
1484 1486 1488 1491 1492 1495 1497 1501 1505 1511 1518 1523 1527 1532 1535 1537 1538 1541 1543 1546 1547 1549 1553 1556 1557 1559 1558 1559 1559 1560 1562 1566
1478 1481 1483 1486 1490 1494 1497 1501 1505 1510 1514 1518 1522 1524 1527 1529 1531 1535 1538 1540 1541 1544 1548 1550 1551 1553 1553 1553 1554 1554 1555 1556
1472 1473 1477 1481 1485 1490 1495 1499 1502 1505 1508 1511 1514 1518 1521 1523 1527 1530 1532 1534 1537 1541 1543 1544 1544 1545 1547 1548 1549 1548 1548 1549
1466 1470 1474 1476 1482 1486 1490 1493 1495 1499 1503 1506 1508 1512 1515 1517 1520 1522 1524 1527 1530 1534 1537 1538 1539 1539 1541 1542 1543 1543 1542 1542
1460 1464 1469 1473 1474 1479 1484 1487 1490 1494 1498 1500 1502 1506 1509 1512 1515 1517 1519 1521 1524 1525 1529 1531 1533 1534 1535 1536 1537 1537 1538 1538
1451 1453 1457 1462 1468 1472 1477 1480 1482 1485 1489 1490 1494 1498 1502 1505 1508 1510 1514 1515 1517 1522 1524 1523 1526 1527 1529 1530 1531 1531 1533 1532
1444 1446 1450 1454 1457 1461 1464 1470 1475 1481 1485 1488 1490 1491 1494 1493 1498 1502 1506 1511 1516 1517 1517 1518 1521 1523 1524 1525 1525 1527 1527 1530
1439 1440 1443 1446 1447 1448 1455 1459 1464 1470 1477 1481 1483 1484 1487 1490 1495 1502 1504 1494 1505 1509 1510 1513 1515 1517 1518 1519 1520 1520 1523 1526
1435 1436 1436 1437 1439 1443 1448 1453 1456 1462 1467 1470 1475 1480 1485 1487 1491 1491 1495 1497 1497 1501 1505 1508 1510 1511 1513 1514 1515 1516 1519 1521
1432 1434 1437 1435 1434 1439 1442 1445 1450 1458 1462 1465 1468 1472 1477 1482 1473 1480 1491 1494 1492 1493 1499 1502 1504 1506 1507 1508 1510 1512 1513 1516
1429 1430 1432 1432 1433 1437 1440 1448 1454 1461 1463 1460 1463 1466 1467 1474 1478 1482 1484 1488 1486 1489 1493 1496 1498 1500 1501 1504 1506 1508 1511 1512
1427 1429 1430 1431 1431 1435 1442 1445 1445 1454 1456 1458 1458 1461 1465 1469 1471 1474 1477 1479 1481 1485 1488 1491 1492 1494 1496 1499 1502 1505 1507 1509
1422 1424 1428 1428 1430 1432 1435 1437 1442 1447 1451 1450 1451 1456 1460 1464 1466 1467 1471 1475 1478 1481 1483 1485 1487 1490 1493 1496 1499 1502 1504 1506
1418 1420 1423 1425 1428 1430 1431 1434 1438 1440 1442 1446 1449 1453 1457 1460 1462 1464 1469 1471 1474 1477 1479 1482 1485 1488 1492 1494 1496 1499 1501 1502
1415 1417 1419 1422 1424 1426 1429 1432 1434 1437 1440 1443 1447 1450 1453 1456 1459 1462 1465 1468 1472 1475 1478 1481 1484 1487 1490 1491 1494 1495 1497 1498
1410 1412 1415 1418 1422 1424 1426 1428 1431 1435 1439 1441 1444 1447 1450 1453 1457 1460 1464 1468 1472 1474 1477 1479 1482 1485 1487 1489 1491 1492 1493 1494
Wind_Speed
14 14 18 20 24 25 29 30 32 34 33 30 34 33 42 37 23 24 16 15 18 19 18 18 20 20 20 18 17 14 15 17
18 16 20 23 24 27 29 30 30 32 37 30 34 36 37 34 23 22 19 20 21 23 23 21 21 22 21 19 17 19 22 21
24 19 19 26 24 25 28 29 33 36 33 35 35 30 31 35 26 23 26 24 22 23 22 22 22 25 24 22 21 22 23 24
33 30 24 25 31 32 33 35 40 42 34 29 26 23 25 27 30 30 28 28 27 25 25 23 25 26 29 24 23 22 22 22
32 35 35 32 34 35 38 44 46 37 28 27 27 27 28 29 30 28 29 31 29 26 28 28 26 28 27 25 27 26 24 24
41 39 38 35 33 35 40 43 40 32 30 30 28 27 26 24 25 26 27 29 31 30 31 29 31 32 28 29 29 28 31 26
40 40 38 37 36 35 38 44 38 32 32 32 33 36 32 31 31 30 29 28 26 28 29 31 34 36 32 29 28 30 30 31
44 43 43 40 38 40 40 40 42 38 35 33 36 36 34 33 34 30 31 32 31 28 28 30 29 34 33 29 27 28 31 30
47 46 44 43 44 42 43 43 41 41 41 37 36 37 38 35 36 34 32 33 32 30 30 28 21 21 19 20 26 29 31 22
48 48 46 43 43 47 49 46 45 43 44 45 44 42 37 42 40 35 35 31 27 29 27 22 15 13 14 19 26 28 19 16
45 48 47 45 43 43 45 44 44 45 47 45 45 43 41 39 35 32 25 25 29 32 25 19 17 17 20 20 23 20 18 21
27 42 49 47 48 48 45 47 46 45 43 43 46 45 43 43 35 24 28 25 24 25 22 19 19 19 19 22 18 19 21 24
9 10 38 45 51 51 50 46 46 46 44 42 44 43 37 38 15 25 28 23 24 18 18 19 18 19 20 18 19 21 22 17
12 10 7 23 43 44 45 42 32 31 35 31 27 26 26 33 27 23 15 19 15 17 18 18 17 20 19 17 18 16 14 12
17 12 10 7 9 21 31 25 27 32 42 28 24 23 21 21 21 17 16 15 14 15 15 16 17 17 15 15 14 12 11 10
23 19 14 14 11 13 19 22 27 30 26 21 19 23 21 19 17 15 14 14 13 13 14 16 15 13 13 12 12 11 11 11
27 26 26 22 19 18 19 22 23 20 18 22 23 20 18 15 15 15 15 15 14 14 14 13 12 11 11 11 11 10 10 11
22 31 31 29 25 25 21 19 18 18 20 21 21 20 17 16 16 17 17 17 16 14 13 12 12 11 11 10 9 8 7 9
21 30 33 33 29 27 26 23 20 15 17 19 19 17 19 19 20 20 20 19 16 13 11 11 13 13 11 8 7 8 9 11
Wind_Direction
170 158 164 162 171 171 172 176 177 179 183 182 182 183 178 183 193 205 214 210 228 224 227 222 223 235 243 238 237 230 221 224
170 156 157 159 158 163 167 169 179 178 175 183 171 176 183 196 195 205 218 227 229 233 230 227 235 243 244 247 242 236 229 226
172 163 163 172 168 170 174 174 175 178 174 169 173 177 190 194 205 209 223 232 239 237 226 237 243 244 245 244 244 249 243 232
175 171 174 175 169 163 163 165 161 162 167 172 181 189 198 207 212 213 220 229 237 235 232 234 243 244 244 245 250 251 249 247
177 180 180 178 171 168 164 166 169 177 180 185 191 198 206 215 214 222 229 234 237 236 240 239 240 245 249 257 275 257 260 252
182 190 194 191 188 184 180 179 183 189 192 195 203 208 218 218 221 228 232 235 241 245 244 238 240 241 244 264 266 256 258 247
196 197 200 198 199 199 194 192 194 196 199 203 208 221 221 223 225 226 228 231 240 246 247 250 249 245 248 257 258 260 261 250
196 194 196 198 204 206 206 204 207 203 202 204 211 219 228 226 224 228 230 233 240 245 249 251 250 248 250 255 256 260 253 250
195 199 201 202 205 212 215 215 215 211 212 213 214 217 220 229 228 223 231 238 245 250 254 254 253 253 248 256 253 255 258 256
197 202 204 205 207 210 217 221 221 218 219 221 227 226 219 226 230 234 229 235 247 249 254 246 236 248 254 262 254 257 256 247
199 202 207 210 212 216 216 221 225 223 219 220 224 229 229 232 232 237 238 240 243 247 257 250 248 256 243 263 254 249 233 238
202 204 213 214 216 216 220 220 224 225 223 223 224 227 231 236 235 235 245 237 236 235 243 246 239 244 249 256 246 230 235 238
234 153 214 213 218 215 220 222 224 224 228 224 222 230 231 242 253 226 239 221 230 214 226 233 235 241 245 244 235 229 232 238
198 227 187 212 215 211 215 215 202 242 235 233 227 226 233 234 232 212 196 208 208 216 230 236 245 243 235 236 232 234 234 226
191 208 218 210 181 201 209 202 216 219 229 234 225 225 225 219 214 210 212 215 224 226 234 244 236 229 224 222 220 218 211 228
189 192 191 211 201 193 190 195 198 202 225 225 212 210 213 202 208 205 220 231 230 235 231 221 209 199 199 202 201 208 230 248
195 186 184 200 210 196 184 188 203 209 208 204 202 200 197 206 213 226 224 218 213 208 195 187 183 183 186 194 212 227 238 249
194 185 186 193 209 218 206 195 185 188 197 198 190 191 200 207 211 208 199 191 184 182 178 175 167 182 197 210 224 225 234 254
190 187 190 196 204 209 217 216 213 203 191 192 190 192 201 201 188 180 176 171 169 171 173 174 178 183 191 202 223 239 262 278